• In Uzbekistan
  • List of Countries
  • For 7 days
  • Water Temperature
  • Satellite Maps
  • Weather Map
  • Weather Widgets
  • user-avatar
    Login

    Hourly Weather Escaldes-Engordany

    Today, 23 July, Sunday

    Time Temperature Precipitation Wind Pressure Humidity
    00:00 +14°C° 0 mm 1 mps 642 mmHg 91%
    01:00 +14°C° 0 mm 1 mps 642 mmHg 92%
    02:00 +14°C° 0 mm 1 mps 642 mmHg 92%
    03:00 +13°C° 0 mm 1 mps 642 mmHg 93%
    04:00 +14°C° 0 mm 1 mps 643 mmHg 92%
    05:00 +14°C° 0 mm 1 mps 643 mmHg 90%
    06:00 +15°C° 0 mm 1 mps 643 mmHg 89%
    07:00 +16°C° 0 mm 1 mps 644 mmHg 79%
    08:00 +18°C° 0 mm 2 mps 645 mmHg 69%
    09:00 +20°C° 0 mm 2 mps 645 mmHg 60%
    10:00 +21°C° 0 mm 3 mps 646 mmHg 54%
    11:00 +22°C° 0 mm 3 mps 646 mmHg 49%
    12:00 +23°C° 0 mm 4 mps 646 mmHg 43%
    13:00 +23°C° 0.2 mm 4 mps 646 mmHg 48%
    14:00 +22°C° 0.2 mm 3 mps 645 mmHg 52%
    15:00 +22°C° 0.2 mm 3 mps 645 mmHg 56%
    16:00 +21°C° 1.3 mm 3 mps 644 mmHg 63%
    17:00 +19°C° 1.3 mm 2 mps 644 mmHg 69%
    18:00 +18°C° 1.3 mm 2 mps 643 mmHg 76%
    19:00 +18°C° 0.2 mm 1 mps 643 mmHg 82%
    20:00 +15°C° 0.2 mm 1 mps 643 mmHg 87%
    21:00 +14°C° 0.2 mm 1 mps 642 mmHg 93%
    22:00 +14°C° 0 mm 1 mps 642 mmHg 93%
    23:00 +13°C° 0 mm 1 mps 642 mmHg 94%

    Tomorrow, 24 July, Monday

    Time Temperature Precipitation Wind Pressure Humidity
    00:00 +13°C° 0 mm 1 mps 642 mmHg 94%
    01:00 +13°C° 0.1 mm 1 mps 642 mmHg 94%
    02:00 +13°C° 0.1 mm 1 mps 641 mmHg 94%
    03:00 +12°C° 0.1 mm 1 mps 641 mmHg 94%
    04:00 +13°C° 0.1 mm 1 mps 641 mmHg 92%
    05:00 +13°C° 0.1 mm 2 mps 641 mmHg 89%
    06:00 +13°C° 0.1 mm 2 mps 641 mmHg 87%
    07:00 +15°C° 0 mm 2 mps 642 mmHg 78%
    08:00 +16°C° 0 mm 2 mps 642 mmHg 70%
    09:00 +18°C° 0 mm 3 mps 643 mmHg 61%
    10:00 +19°C° 0 mm 3 mps 643 mmHg 56%
    11:00 +20°C° 0 mm 3 mps 643 mmHg 51%
    12:00 +20°C° 0 mm 3 mps 643 mmHg 46%
    13:00 +20°C° 0 mm 4 mps 643 mmHg 46%
    14:00 +21°C° 0 mm 4 mps 643 mmHg 45%
    15:00 +21°C° 0 mm 4 mps 643 mmHg 45%
    16:00 +19°C° 0 mm 4 mps 643 mmHg 49%
    17:00 +18°C° 0 mm 4 mps 642 mmHg 53%
    18:00 +17°C° 0 mm 4 mps 642 mmHg 58%
    19:00 +14°C° 0 mm 3 mps 642 mmHg 65%
    20:00 +12°C° 0 mm 3 mps 641 mmHg 72%
    21:00 +10°C° 0 mm 3 mps 641 mmHg 78%
    22:00 +10°C° 0 mm 3 mps 641 mmHg 77%
    23:00 +9°C° 0 mm 3 mps 641 mmHg 76%

    Day after tomorrow, 25 July, Tuesday

    Time Temperature Precipitation Wind Pressure Humidity
    00:00 +9°C° 0 mm 3 mps 640 mmHg 75%
    01:00 +8°C° 0 mm 3 mps 640 mmHg 74%
    02:00 +8°C° 0 mm 3 mps 640 mmHg 74%
    03:00 +8°C° 0 mm 3 mps 639 mmHg 73%
    04:00 +9°C° 0 mm 3 mps 640 mmHg 73%
    05:00 +9°C° 0 mm 3 mps 640 mmHg 72%
    06:00 +10°C° 0 mm 3 mps 640 mmHg 71%
    07:00 +11°C° 0 mm 3 mps 640 mmHg 64%
    08:00 +13°C° 0 mm 3 mps 641 mmHg 57%
    09:00 +16°C° 0 mm 3 mps 642 mmHg 50%
    10:00 +17°C° 0 mm 3 mps 642 mmHg 47%
    11:00 +18°C° 0 mm 4 mps 642 mmHg 43%
    12:00 +20°C° 0 mm 4 mps 642 mmHg 39%
    13:00 +20°C° 0 mm 4 mps 642 mmHg 39%
    14:00 +20°C° 0 mm 4 mps 641 mmHg 38%
    15:00 +20°C° 0 mm 4 mps 641 mmHg 38%
    16:00 +19°C° 0.2 mm 4 mps 641 mmHg 44%
    17:00 +17°C° 0.2 mm 4 mps 640 mmHg 51%
    18:00 +16°C° 0.2 mm 3 mps 640 mmHg 57%
    19:00 +13°C° 0.2 mm 3 mps 640 mmHg 66%
    20:00 +12°C° 0.2 mm 3 mps 640 mmHg 75%
    21:00 +10°C° 0.2 mm 3 mps 639 mmHg 84%
    22:00 +10°C° 0 mm 3 mps 639 mmHg 84%
    23:00 +9°C° 0 mm 3 mps 639 mmHg 84%

    26 July, Wednesday

    Time Temperature Precipitation Wind Pressure Humidity
    00:00 +9°C° 0 mm 3 mps 639 mmHg 84%
    01:00 +9°C° 0 mm 3 mps 639 mmHg 83%
    02:00 +8°C° 0 mm 3 mps 638 mmHg 82%
    03:00 +7°C° 0 mm 3 mps 638 mmHg 81%
    04:00 +8°C° 0 mm 3 mps 638 mmHg 77%
    05:00 +8°C° 0 mm 3 mps 638 mmHg 72%
    06:00 +9°C° 0 mm 3 mps 639 mmHg 67%
    07:00 +11°C° 0 mm 3 mps 640 mmHg 59%
    08:00 +13°C° 0 mm 3 mps 640 mmHg 51%
    09:00 +17°C° 0 mm 3 mps 641 mmHg 42%
    10:00 +18°C° 0 mm 3 mps 642 mmHg 39%
    11:00 +19°C° 0 mm 3 mps 642 mmHg 36%
    12:00 +20°C° 0 mm 3 mps 642 mmHg 33%
    13:00 +21°C° 0 mm 4 mps 642 mmHg 33%
    14:00 +21°C° 0 mm 4 mps 642 mmHg 33%
    15:00 +21°C° 0 mm 4 mps 641 mmHg 33%
    16:00 +20°C° 0 mm 3 mps 641 mmHg 39%
    17:00 +19°C° 0 mm 3 mps 641 mmHg 44%
    18:00 +18°C° 0 mm 3 mps 641 mmHg 49%
    19:00 +16°C° 0 mm 3 mps 640 mmHg 60%
    20:00 +14°C° 0 mm 2 mps 640 mmHg 70%
    21:00 +10°C° 0 mm 2 mps 640 mmHg 81%
    22:00 +10°C° 0 mm 2 mps 640 mmHg 82%
    23:00 +10°C° 0 mm 2 mps 640 mmHg 83%

    27 July, Thursday

    Time Temperature Precipitation Wind Pressure Humidity
    00:00 +9°C° 0 mm 2 mps 639 mmHg 84%
    01:00 +9°C° 0 mm 2 mps 639 mmHg 82%
    02:00 +9°C° 0 mm 2 mps 639 mmHg 80%
    03:00 +9°C° 0 mm 2 mps 639 mmHg 79%
    04:00 +10°C° 0 mm 2 mps 639 mmHg 76%
    05:00 +12°C° 0 mm 2 mps 640 mmHg 72%
    06:00 +12°C° 0 mm 1 mps 640 mmHg 69%
    07:00 +15°C° 0 mm 1 mps 641 mmHg 60%
    08:00 +19°C° 0 mm 1 mps 642 mmHg 51%
    09:00 +22°C° 0 mm 1 mps 643 mmHg 42%
    10:00 +23°C° 0 mm 1 mps 643 mmHg 40%
    11:00 +24°C° 0 mm 1 mps 644 mmHg 37%
    12:00 +25°C° 0 mm 2 mps 644 mmHg 35%
    13:00 +26°C° 0 mm 2 mps 644 mmHg 35%
    14:00 +26°C° 0 mm 2 mps 643 mmHg 36%
    15:00 +26°C° 0 mm 2 mps 643 mmHg 37%
    16:00 +25°C° 0 mm 2 mps 643 mmHg 42%
    17:00 +24°C° 0 mm 2 mps 643 mmHg 47%
    18:00 +23°C° 0 mm 1 mps 642 mmHg 52%
    19:00 +21°C° 0 mm 1 mps 642 mmHg 59%
    20:00 +18°C° 0 mm 1 mps 642 mmHg 67%
    21:00 +15°C° 0 mm 1 mps 641 mmHg 75%
    22:00 +15°C° 0 mm 1 mps 642 mmHg 76%
    23:00 +15°C° 0 mm 1 mps 642 mmHg 77%

    28 July, Friday

    Time Temperature Precipitation Wind Pressure Humidity
    00:00 +14°C° 0 mm 1 mps 642 mmHg 78%
    01:00 +14°C° 0 mm 1 mps 641 mmHg 77%
    02:00 +14°C° 0 mm 1 mps 641 mmHg 77%
    03:00 +14°C° 0 mm 1 mps 641 mmHg 77%
    04:00 +15°C° 0 mm 1 mps 642 mmHg 75%
    05:00 +15°C° 0 mm 1 mps 642 mmHg 73%
    06:00 +16°C° 0 mm 1 mps 643 mmHg 72%
    07:00 +20°C° 0 mm 1 mps 644 mmHg 63%
    08:00 +22°C° 0 mm 1 mps 645 mmHg 55%
    09:00 +24°C° 0 mm 1 mps 646 mmHg 47%
    10:00 +25°C° 0 mm 1 mps 646 mmHg 44%
    11:00 +26°C° 0 mm 2 mps 646 mmHg 42%
    12:00 +27°C° 0 mm 2 mps 646 mmHg 40%
    13:00 +27°C° 0.1 mm 2 mps 646 mmHg 42%
    14:00 +27°C° 0.1 mm 2 mps 646 mmHg 43%
    15:00 +26°C° 0.1 mm 2 mps 645 mmHg 45%
    16:00 +26°C° 0 mm 2 mps 645 mmHg 48%
    17:00 +25°C° 0 mm 2 mps 645 mmHg 51%
    18:00 +24°C° 0 mm 2 mps 645 mmHg 55%
    19:00 +22°C° 0 mm 1 mps 645 mmHg 63%
    20:00 +20°C° 0 mm 1 mps 644 mmHg 72%
    21:00 +18°C° 0 mm 1 mps 644 mmHg 80%
    22:00 +16°C° 0 mm 1 mps 644 mmHg 81%
    23:00 +16°C° 0 mm 1 mps 644 mmHg 82%
    Show more